Tracking 28081 objects as of 27-Sep-2023
HD Live streaming from Space Station
objects crossing your sky now

STARLINK-4140

Track STARLINK-4140 now!
10-day predictions
STARLINK-4140 is classified as:


NORAD ID: 53259
Int'l Code: 2022-086T
Perigee: 545.7 km
Apogee: 548.1 km
Inclination: 53.2 °
Period: 95.4 minutes
Semi major axis: 6917 km
RCS: Unknown
Launch date: July 24, 2022
Source: United States (US)
Launch site: AIR FORCE EASTERN TEST RANGE (AFETR)
Your satellite tracking list
Your tracking list is empty




NASA's NSSDC Master Catalog

Two Line Element Set (TLE):
1 53259U 22086T   23269.27629608  .00001982  00000-0  14258-3 0  9997
2 53259  53.2160 253.4314 0001735  75.1788 284.9396 15.08841133 65890
Source of the keplerian elements: AFSPC